User: anonymous   Login
Location: Axtheid
(49.6213°N, 11.8205°E)
Time: 07:58:57
(UTC+00:00)
Language:

Cosmos 2098 Rocket - Orbit

View from above orbital plane
View from above orbital plane
View from above satellite
View from above satellite

Ground track
Ground track

The orbit data is extracted from the following two-line orbital elements,

1 20775U 90078B   21104.34704555  .00002519  00000-0  12152-3 0  9997
2 20775  82.9272 338.3036 0568055 341.9540  16.2180 14.35580044548890
Epoch (UTC): 14 April 2021 08:19:44
Eccentricity: 0.0568055
inclination: 82.9272°
perigee height: 367 km
apogee height: 1179 km
right ascension of ascending node: 338.3036°
argument of perigee: 341.9540°
revolutions per day: 14.35580044
mean anomaly at epoch: 16.2180°
orbit number at epoch: 54889

The dashed part of the orbit path shows where the satellite is in the earth's shadow,  

DLR